| time (UTC) | temp F | wind direction | speed MPH | gust MPH | rain 1hr in | rain 24hr in | rain mn in | humidity % | barometer mb |
| 20260508202043 | 68 | 0.0 | 0.0 | 0.00 | 0.00 | 0.00 | 4 | 994.1 | |
| 20260508200719 | 68 | 0.0 | 0.0 | 0.00 | 0.00 | 0.00 | 4 | 994.0 | |
| 20260508195408 | 69 | 0.0 | 0.0 | 0.00 | 0.00 | 0.00 | 4 | 993.9 | |
| 20260508194138 | 69 | 0.0 | 0.0 | 0.00 | 0.00 | 0.00 | 4 | 993.8 | |
| 20260508192833 | 69 | 0.0 | 0.0 | 0.00 | 0.00 | 0.00 | 4 | 993.6 | |
| 20260508191428 | 70 | 0.0 | 0.0 | 0.00 | 0.00 | 0.00 | 4 | 993.4 | |
| 20260508190023 | 71 | 0.0 | 0.0 | 0.00 | 0.00 | 0.00 | 4 | 993.2 | |
| 20260508184822 | 71 | 0.0 | 0.0 | 0.00 | 0.00 | 0.00 | 3 | 993.0 | |
| 20260508183358 | 72 | 0.0 | 0.0 | 0.00 | 0.00 | 0.00 | 3 | 992.8 | |
| 20260508181908 | 72 | 0.0 | 0.0 | 0.00 | 0.00 | 0.00 | 3 | 992.8 | |
| 20260508180704 | 73 | 0.0 | 0.0 | 0.00 | 0.00 | 0.00 | 3 | 992.8 | |
| 20260508175218 | 74 | 0.0 | 0.0 | 0.00 | 0.00 | 0.00 | 3 | 992.5 | |
| 20260508174018 | 74 | 0.0 | 0.0 | 0.00 | 0.00 | 0.00 | 3 | 992.4 | |
| 20260508172708 | 75 | 0.0 | 0.0 | 0.00 | 0.00 | 0.00 | 3 | 992.2 | |
| 20260508171238 | 76 | 0.0 | 0.0 | 0.00 | 0.00 | 0.00 | 3 | 992.3 | |
| 20260508165903 | 77 | 0.0 | 0.0 | 0.00 | 0.00 | 0.00 | 3 | 992.2 | |
| 20260508164448 | 77 | 0.0 | 0.0 | 0.00 | 0.00 | 0.00 | 3 | 992.3 | |
| 20260508163248 | 78 | 0.0 | 0.0 | 0.00 | 0.00 | 0.00 | 3 | 992.3 | |
| 20260508162018 | 78 | 0.0 | 0.0 | 0.00 | 0.00 | 0.00 | 3 | 992.2 | |
| 20260508160548 | 78 | 0.0 | 0.0 | 0.00 | 0.00 | 0.00 | 3 | 992.3 | |
| 20260508155156 | 78 | 0.0 | 0.0 | 0.00 | 0.00 | 0.00 | 3 | 992.4 | |
| 20260508153848 | 78 | 0.0 | 0.0 | 0.00 | 0.00 | 0.00 | 3 | 992.4 | |
| 20260508152613 | 78 | 0.0 | 0.0 | 0.00 | 0.00 | 0.00 | 3 | 992.4 | |
| 20260508151203 | 79 | 0.0 | 0.0 | 0.00 | 0.00 | 0.00 | 3 | 992.4 | |
| 20260508145748 | 79 | 0.0 | 0.0 | 0.00 | 0.00 | 0.00 | 3 | 992.5 | |
| 20260508144323 | 79 | 0.0 | 0.0 | 0.00 | 0.00 | 0.00 | 3 | 992.8 | |
| 20260508142928 | 78 | 0.0 | 0.0 | 0.00 | 0.00 | 0.00 | 3 | 992.9 | |
| 20260508141608 | 77 | 0.0 | 0.0 | 0.00 | 0.00 | 0.00 | 3 | 993.0 | |
| 20260508140123 | 76 | 0.0 | 0.0 | 0.00 | 0.00 | 0.00 | 3 | 993.2 | |
| 20260508134653 | 78 | 0.0 | 0.0 | 0.00 | 0.00 | 0.00 | 3 | 993.1 | |
| 20260508133233 | 77 | 0.0 | 0.0 | 0.00 | 0.00 | 0.00 | 3 | 993.3 | |
| 20260508131833 | 76 | 0.0 | 0.0 | 0.00 | 0.00 | 0.00 | 3 | 993.3 | |
| 20260508130418 | 76 | 0.0 | 0.0 | 0.00 | 0.00 | 0.00 | 3 | 993.3 | |
| 20260508125043 | 75 | 0.0 | 0.0 | 0.00 | 0.00 | 0.00 | 3 | 993.5 | |
| 20260508123703 | 76 | 0.0 | 0.0 | 0.00 | 0.00 | 0.00 | 3 | 993.7 | |
| 20260508122322 | 73 | 0.0 | 0.0 | 0.00 | 0.00 | 0.00 | 4 | 993.7 | |
| 20260508120848 | 73 | 0.0 | 0.0 | 0.00 | 0.00 | 0.00 | 4 | 993.7 | |
| 20260508115523 | 73 | 0.0 | 0.0 | 0.00 | 0.00 | 0.00 | 4 | 993.8 | |
| 20260508114233 | 72 | 0.0 | 0.0 | 0.00 | 0.00 | 0.00 | 4 | 994.0 | |
| 20260508113023 | 71 | 0.0 | 0.0 | 0.00 | 0.00 | 0.00 | 4 | 994.1 | |
| 20260508111658 | 70 | 0.0 | 0.0 | 0.00 | 0.00 | 0.00 | 4 | 994.2 | |
| 20260508110458 | 71 | 0.0 | 0.0 | 0.00 | 0.00 | 0.00 | 4 | 994.3 | |
| 20260508105122 | 73 | 0.0 | 0.0 | 0.00 | 0.00 | 0.00 | 4 | 994.3 | |
| 20260508103802 | 72 | 0.0 | 0.0 | 0.00 | 0.00 | 0.00 | 4 | 994.4 | |
| 20260508102313 | 70 | 0.0 | 0.0 | 0.00 | 0.00 | 0.00 | 4 | 994.4 | |
| 20260508100913 | 66 | 0.0 | 0.0 | 0.00 | 0.00 | 0.00 | 5 | 994.4 | |
| 20260508095413 | 65 | 0.0 | 0.0 | 0.00 | 0.00 | 0.00 | 5 | 994.5 | |
| 20260508094103 | 64 | 0.0 | 0.0 | 0.00 | 0.00 | 0.00 | 5 | 994.7 | |
| 20260508092716 | 63 | 0.0 | 0.0 | 0.00 | 0.00 | 0.00 | 5 | 994.8 | |
| 20260508091248 | 63 | 0.0 | 0.0 | 0.00 | 0.00 | 0.00 | 5 | 994.8 | |
| 20260508090033 | 61 | 0.0 | 0.0 | 0.00 | 0.00 | 0.00 | 6 | 994.8 | |
| 20260508084608 | 60 | 0.0 | 0.0 | 0.00 | 0.00 | 0.00 | 6 | 994.8 | |
| 20260508083313 | 59 | 0.0 | 0.0 | 0.00 | 0.00 | 0.00 | 6 | 994.7 | |
| 20260508081828 | 58 | 0.0 | 0.0 | 0.00 | 0.00 | 0.00 | 6 | 994.8 | |
| 20260508080402 | 59 | 0.0 | 0.0 | 0.00 | 0.00 | 0.00 | 6 | 994.7 | |
| 20260508075018 | 57 | 0.0 | 0.0 | 0.00 | 0.00 | 0.00 | 6 | 994.7 | |
| 20260508073648 | 57 | 0.0 | 0.0 | 0.00 | 0.00 | 0.00 | 6 | 994.8 | |
| 20260508072438 | 57 | 0.0 | 0.0 | 0.00 | 0.00 | 0.00 | 6 | 994.8 | |
| 20260508071028 | 56 | 0.0 | 0.0 | 0.00 | 0.00 | 0.00 | 6 | 994.7 | |
| 20260508065633 | 54 | 0.0 | 0.0 | 0.00 | 0.00 | 0.00 | 7 | 994.8 | |
| 20260508064133 | 53 | 0.0 | 0.0 | 0.00 | 0.00 | 0.00 | 7 | 994.7 | |
| 20260508062648 | 54 | 0.0 | 0.0 | 0.00 | 0.00 | 0.00 | 6 | 994.7 | |
| 20260508061253 | 54 | 0.0 | 0.0 | 0.00 | 0.00 | 0.00 | 6 | 994.7 | |
| 20260508055938 | 53 | 0.0 | 0.0 | 0.00 | 0.00 | 0.00 | 6 | 994.7 | |
| 20260508054550 | 53 | 0.0 | 0.0 | 0.00 | 0.00 | 0.00 | 6 | 994.5 | |
| 20260508053118 | 53 | 0.0 | 0.0 | 0.00 | 0.00 | 0.00 | 6 | 994.4 | |
| 20260508051728 | 52 | 0.0 | 0.0 | 0.00 | 0.00 | 0.00 | 7 | 994.3 | |
| 20260508050442 | 53 | 0.0 | 0.0 | 0.00 | 0.00 | 0.00 | 7 | 994.2 | |
| 20260508045048 | 53 | 0.0 | 0.0 | 0.00 | 0.00 | 0.00 | 6 | 994.1 | |
| 20260508043848 | 52 | 0.0 | 0.0 | 0.00 | 0.00 | 0.00 | 7 | 994.0 | |
| 20260508042509 | 53 | 0.0 | 0.0 | 0.00 | 0.00 | 0.00 | 6 | 994.0 | |
| 20260508041233 | 53 | 0.0 | 0.0 | 0.00 | 0.00 | 0.00 | 6 | 993.9 | |
| 20260508035733 | 53 | 0.0 | 0.0 | 0.00 | 0.00 | 0.00 | 6 | 993.9 | |
| 20260508034402 | 53 | 0.0 | 0.0 | 0.00 | 0.00 | 0.00 | 6 | 993.9 | |
| 20260508032938 | 53 | 0.0 | 0.0 | 0.00 | 0.00 | 0.00 | 6 | 993.9 | |
| 20260508031518 | 53 | 0.0 | 0.0 | 0.00 | 0.00 | 0.00 | 6 | 993.9 | |
| 20260508030203 | 53 | 0.0 | 0.0 | 0.00 | 0.00 | 0.00 | 6 | 993.8 | |
| 20260508024908 | 53 | 0.0 | 0.0 | 0.00 | 0.00 | 0.00 | 6 | 993.7 | |
| 20260508023608 | 54 | 0.0 | 0.0 | 0.00 | 0.00 | 0.00 | 6 | 993.6 | |
| 20260508022143 | 54 | 0.0 | 0.0 | 0.00 | 0.00 | 0.00 | 6 | 993.6 | |
| 20260508020722 | 55 | 0.0 | 0.0 | 0.00 | 0.00 | 0.00 | 6 | 993.6 | |
| 20260508015308 | 55 | 0.0 | 0.0 | 0.00 | 0.00 | 0.00 | 6 | 993.5 | |
| 20260508013842 | 55 | 0.0 | 0.0 | 0.00 | 0.00 | 0.00 | 6 | 993.6 | |
| 20260508012433 | 55 | 0.0 | 0.0 | 0.00 | 0.00 | 0.00 | 6 | 993.5 | |
| 20260508011148 | 55 | 0.0 | 0.0 | 0.00 | 0.00 | 0.00 | 6 | 993.6 | |
| 20260508005708 | 56 | 0.0 | 0.0 | 0.00 | 0.00 | 0.00 | 6 | 993.5 | |
| 20260508004238 | 56 | 0.0 | 0.0 | 0.00 | 0.00 | 0.00 | 6 | 993.6 | |
| 20260508002918 | 56 | 0.0 | 0.0 | 0.00 | 0.00 | 0.00 | 6 | 993.7 | |
| 20260508001518 | 57 | 0.0 | 0.0 | 0.00 | 0.00 | 0.00 | 6 | 993.9 | |
| 20260508000228 | 57 | 0.0 | 0.0 | 0.00 | 0.00 | 0.00 | 6 | 993.9 | |
| 20260507234738 | 57 | 0.0 | 0.0 | 0.00 | 0.00 | 0.00 | 6 | 994.0 | |
| 20260507233433 | 58 | 0.0 | 0.0 | 0.00 | 0.00 | 0.00 | 6 | 993.9 | |
| 20260507231958 | 58 | 0.0 | 0.0 | 0.00 | 0.00 | 0.00 | 6 | 994.0 | |
| 20260507230758 | 58 | 0.0 | 0.0 | 0.00 | 0.00 | 0.00 | 6 | 994.0 | |
| 20260507225328 | 58 | 0.0 | 0.0 | 0.00 | 0.00 | 0.00 | 6 | 994.0 | |
| 20260507224053 | 58 | 0.0 | 0.0 | 0.00 | 0.00 | 0.00 | 6 | 994.0 | |
| 20260507222723 | 57 | 0.0 | 0.0 | 0.00 | 0.00 | 0.00 | 6 | 994.1 | |
| 20260507221343 | 58 | 0.0 | 0.0 | 0.00 | 0.00 | 0.00 | 6 | 994.0 | |
| 20260507220002 | 58 | 0.0 | 0.0 | 0.00 | 0.00 | 0.00 | 6 | 994.0 | |
| 20260507214724 | 59 | 0.0 | 0.0 | 0.00 | 0.00 | 0.00 | 6 | 993.9 | |
| 20260507213323 | 59 | 0.0 | 0.0 | 0.00 | 0.00 | 0.00 | 6 | 993.8 | |
| 20260507211848 | 59 | 0.0 | 0.0 | 0.00 | 0.00 | 0.00 | 6 | 993.8 | |
| 20260507210423 | 59 | 0.0 | 0.0 | 0.00 | 0.00 | 0.00 | 6 | 993.8 | |
| 20260507205153 | 60 | 0.0 | 0.0 | 0.00 | 0.00 | 0.00 | 6 | 993.8 | |
| 20260507203928 | 60 | 0.0 | 0.0 | 0.00 | 0.00 | 0.00 | 6 | 993.6 |